This demonstration page uses our WeatherBlox Daily Observations layout. Learn more.

Left ArrowRight Arrow

36.17497, -115.13722

Hourly Observations for April 16, 2016

Temp ( °F °C ) Dew Point ( °F °C ) Humidity (%) Winds ( mph kmh ) Pressure ( in mb ) Visibility ( mi km ) Precip ( " mm )
12:53 am 00:53 Clear 59 15 20 -6.7 22 22 NNW 16 26 30.02 1017 10 16.0934 0 0
1:53 am 01:53 Clear 59 15 20 -6.7 22 22 NNW 17 28 30.03 1017 10 16.0934 0 0
2:53 am 02:53 Clear 58 14.4 21 -6.1 24 24 NNW 16 26 30.02 1017 10 16.0934 0 0
3:53 am 03:53 Clear 57 13.9 21 -6.1 25 25 N 18 30 30.02 1017 10 16.0934 0 0
4:53 am 04:53 Clear 57 13.9 22 -5.6 26 26 NNW 23 37 30.04 1017 10 16.0934 0 0
5:53 am 05:53 Clear 57 13.9 23 -5 27 27 NNW 13 20 30.06 1018 10 16.0934 0 0
6:53 am 06:53 Sunny 56 13.3 23 -5 28 28 N 14 22 30.08 1019 10 16.0934 0 0
7:53 am 07:53 Sunny 59 15 22 -5.6 24 24 NNW 18 30 30.08 1019 10 16.0934 0 0
8:53 am 08:53 Sunny 61 16.1 22 -5.6 22 22 NNW 21 33 30.09 1019 10 16.0934 0 0
9:53 am 09:53 Sunny 64 17.8 22 -5.6 20 20 NNW 23 37 30.09 1019 10 16.0934 0 0
10:53 am 10:53 Sunny 67 19.4 21 -6.1 17 17 NNW 20 31 30.08 1019 10 16.0934 0 0
11:53 am 11:53 Sunny 71 21.7 20 -6.7 14 14 NNW 24 39 30.05 1018 10 16.0934 0 0
12:53 pm 12:53 Sunny 73 22.8 19 -7.2 13 13 NNW 18 30 30.03 1017 10 16.0934 0 0
1:53 pm 13:53 Sunny 74 23.3 18 -7.8 12 12 N 17 28 30.01 1016 10 16.0934 0 0
2:53 pm 14:53 Mostly Sunny 77 25 19 -7.2 11 11 N 15 24 30 1016 10 16.0934 0 0
3:13 pm 15:13 Sunny 76 24.4 18 -7.8 11 11 NNW 15 24 29.85 1011 10 16.0934 0 0
3:53 pm 15:53 Sunny 77 25 18 -7.8 11 11 undefined N/A 29.98 1015 10 16.0934 0 0
4:53 pm 16:53 Sunny 78 25.6 15 -9.4 9 9 NNE 16 26 29.97 1015 10 16.0934 0 0
5:53 pm 17:53 Sunny 78 25.6 16 -8.9 9 9 N 10 17 29.97 1015 10 16.0934 0 0
6:53 pm 18:53 Sunny 74 23.3 17 -8.3 11 11 E 12 19 29.99 1016 10 16.0934 0 0
7:53 pm 19:53 Clear 71 21.7 16 -8.9 12 12 E 12 19 30.01 1016 10 16.0934 0 0
8:53 pm 20:53 Clear 69 20.6 16 -8.9 13 13 E 8 13 30.05 1018 10 16.0934 0 0
9:53 pm 21:53 Clear 68 20 15 -9.4 13 13 Calm 30.07 1018 10 16.0934 0 0
10:53 pm 22:53 Clear 65 18.3 18 -7.8 16 16 NW 3 6 30.09 1019 10 16.0934 0 0
11:53 pm 23:53 Clear 65 18.3 18 -7.8 16 16 NW 6 9 30.1 1019 10 16.0934 0 0

Powered by AerisWeather